Regional Weather Roundup
Issued by NWS

Home | Current Version | Previous Version | Graphics & Text | Print | Product List | Glossary On
Versions: 1 2 3 4 5 6 7 8 9 10 11 12 13 14 15 16 17 18 19 20 21 22 23 24 25 26 27 28 29 30 31 32 33 34 35 36 37 38 39 40 41 42 43 44 45 46 47 48 49 50
000
ASUS43 KIND 031859
RWRIN

WEATHER ROUNDUP FOR INDIANA
NATIONAL WEATHER SERVICE INDIANAPOLIS IN
200 PM EST SAT DEC 03 2016

NOTE: "FAIR" INDICATES FEW OR NO CLOUDS BELOW 12,000 FEET WITH NO
SIGNIFICANT WEATHER AND/OR OBSTRUCTIONS TO VISIBILITY.

* - STATION DOES NOT REPORT WEATHER SUCH AS PRECIPITATION OR FOG.

+ - STATION NOT QUALITY CONTROLLED BY THE NATIONAL WEATHER SERVICE.
    USE DATA WITH CAUTION...ESPECIALLY DEWPOINT AND RELATIVE
    HUMIDITY OBSERVATIONS.

INZ001>003-010>013-019-020-032000-
NORTHWEST INDIANA

CITY           SKY/WX    TMP DP  RH WIND       PRES   REMARKS
GARY /AIRPORT/ CLOUDY    36  23  60 SW7       30.36F
LA PORTE +     CLOUDY    38  28  68 S3        30.33S
MONTICELLO +   CLOUDY    35  22  60 W5        30.35R WCI  31
RENSSELAER +     N/A     36  28  75 W6        30.35F

$$

LMZ046-743>745-032000-
SOUTHERN LAKE MICHIGAN

STATION/POSITION TIME  TEMP    WIND        PRES    WAVE
                       AIR SEA DIR/SP/G            HT
                 (UTC) (F)     (DEG/KT/KT) (MB)    (FT)
BURNS HARBOR     1840   36     270/  9/ 10 1027.8F
MICHIGAN CITY    1830   35     240/ 11/ 15   N/A

$$

INZ004-005-014>016-021>024-032000-
NORTH CENTRAL INDIANA

CITY           SKY/WX    TMP DP  RH WIND       PRES   REMARKS
ELKHART        CLOUDY    37  27  65 W6        30.32R
GOSHEN         CLOUDY    37  25  61 W6        30.32R
SOUTH BEND     CLOUDY    36  25  64 W10       30.33S
WARSAW +       CLOUDY    36  23  60 W5        30.32S

$$

INZ006>009-017-018-025>027-032000-
NORTHEAST INDIANA

CITY           SKY/WX    TMP DP  RH WIND       PRES   REMARKS
ANGOLA *+      CLOUDY    36  27  69 W7        30.29F
FORT WAYNE     CLOUDY    36  26  67 SW8       30.33R
KENDALLVILLE + CLOUDY    36  26  68 W6        30.31R

$$

INZ028-029-035-036-043>045-051>053-032000-
WEST CENTRAL INDIANA

CITY           SKY/WX    TMP DP  RH WIND       PRES   REMARKS
CRAWFORDSVL +  CLOUDY    35  28  75 W9        30.35S WCI  28
GREENCASTLE +  CLOUDY    37  32  81 W5        30.35F
LAFAYETTE      CLOUDY    35  27  72 W8        30.35F WCI  29
TERRE HAUTE    CLOUDY    40  27  59 CALM      30.36F

$$

INZ030>032-037>040-046>048-054>057-064-065-032000-
CENTRAL INDIANA

CITY           SKY/WX    TMP DP  RH WIND       PRES   REMARKS
COLUMBUS       CLOUDY    39  32  75 W6        30.36R
FRANKFORT +    CLOUDY    38  29  69 W6        30.35S
GREENWOOD *+   CLOUDY    39  29  66 W7        30.35S
INDIANAPOLIS   CLOUDY    39  28  64 W8        30.34S
-EAGLE CREEK   CLOUDY    39  28  64 W10       30.34S
KOKOMO +       CLOUDY    37  27  67 SW7       30.33F
SHELBYVILLE    CLOUDY    39  27  62 W10       30.33F
ZIONSVILLE +   CLOUDY    35  27  74 W9        30.34S WCI  27

$$

INZ033-034-041-042-049-050-058-059-032000-
EAST CENTRAL INDIANA

CITY           SKY/WX    TMP DP  RH WIND       PRES   REMARKS
MUNCIE         CLOUDY    39  28  64 SW7       30.32

$$

INZ060-061-067>069-081>083-085>088-032000-
SOUTHWEST INDIANA

CITY           SKY/WX    TMP DP  RH WIND       PRES   REMARKS
EVANSVILLE     CLOUDY    46  29  51 N5        30.34F
HUNTINGBURG *+ CLOUDY    43  28  55 N3        30.35F

$$

INZ062-063-066-070>080-084-089>092-032000-
SOUTH CENTRAL AND SOUTHEAST INDIANA

CITY           SKY/WX    TMP DP  RH WIND       PRES   REMARKS
BLOOMINGTON    CLOUDY    41  26  55 CALM      30.34
MADISON *+     CLOUDY    41  27  56 W3        30.35F
SEYMOUR +      CLOUDY    43  28  56 W5        30.34

$$




USA.gov is the U.S. government's official web portal to all federal, state and local government web resources and services.